Theta_e
280 280 280 280 280 279 279 279 279 279 280 280 279 279 279 279 279 278 278 279 279 280 281 280 280 282 284 285 285 286 286 285 283 286 288 286 284 285 285 285 286 286 288
280 279 279 279 279 279 279 279 279 278 279 279 279 279 279 279 278 277 276 277 277 278 278 279 280 281 280 282 283 284 284 285 284 282 285 286 283 284 285 285 285 286 286
279 279 279 279 278 278 278 279 278 278 278 278 278 278 278 278 278 278 277 277 277 277 277 278 279 279 279 280 280 281 282 284 284 283 282 285 286 282 283 283 284 284 284
279 278 278 278 278 278 278 278 277 277 277 277 277 277 278 277 277 277 277 277 276 277 278 278 278 278 279 279 280 280 281 280 281 281 281 282 283 284 282 282 282 283 284
277 278 278 278 278 277 277 277 277 277 276 276 275 275 275 275 276 276 277 277 277 277 277 278 278 278 280 281 279 280 280 280 280 279 279 280 280 280 279 282 281 284 283
277 277 277 277 277 276 276 275 274 273 272 272 272 272 272 273 276 277 276 274 275 275 275 276 277 277 278 281 281 282 281 279 279 280 280 279 280 281 282 282 282 281 280
277 275 275 274 273 273 272 271 271 270 270 270 270 269 269 269 273 275 275 273 272 272 272 273 273 275 276 276 278 279 280 281 282 279 278 280 280 282 282 282 282 282 282
272 271 272 271 269 270 269 269 268 268 268 267 267 267 267 268 272 273 273 271 270 270 270 271 271 271 272 273 273 273 275 276 276 277 277 278 280 282 283 284 284 283 284
272 272 270 268 266 267 265 266 266 266 265 264 266 265 264 265 269 271 271 269 269 269 270 270 270 270 272 274 272 271 271 273 276 278 280 281 282 284 285 283 282 282 280
271 270 269 267 262 262 264 264 264 263 264 264 264 264 263 262 267 270 270 269 267 268 269 270 272 271 273 275 273 271 270 272 273 274 275 276 278 278 282 282 283 280 281
268 268 267 265 262 262 261 262 261 261 262 261 261 262 262 263 264 269 271 269 268 267 268 269 270 273 274 275 276 272 271 273 273 273 273 274 276 277 278 280 282 282 281
267 265 263 260 260 261 256 259 259 259 259 259 259 260 262 263 266 268 271 272 273 269 269 269 270 273 274 275 275 276 277 277 274 273 271 271 272 274 277 280 282 283 284
263 258 257 259 259 259 256 258 258 258 258 259 260 260 261 263 264 269 271 272 273 271 271 273 275 276 277 276 277 276 274 272 270 268 268 269 271 273 277 279 281 283 283
260 258 259 258 257 257 260 260 259 258 258 260 260 260 262 265 267 268 268 269 271 272 273 273 274 275 276 276 274 274 273 272 271 270 270 270 272 272 272 276 278 280 280
259 259 258 257 256 258 260 259 260 262 263 264 265 266 265 265 267 272 273 271 272 273 274 272 270 270 271 271 269 268 269 269 268 269 269 269 270 270 271 273 279 280 279
258 259 258 258 258 259 259 259 264 267 269 270 271 269 268 271 273 273 274 275 275 274 268 263 263 264 265 266 267 268 270 269 269 270 269 270 270 272 274 276 278 280 279
255 257 257 258 257 257 258 257 256 260 266 267 268 269 270 271 271 273 273 273 269 268 261 261 262 262 263 264 265 266 267 270 271 270 269 270 271 271 275 276 276 279 279
249 254 253 255 255 255 256 256 256 255 256 257 263 266 268 269 271 270 270 265 259 260 259 259 260 261 262 263 265 266 269 270 269 269 269 270 271 272 274 275 275 276 278
250 252 252 252 254 255 255 254 254 255 255 256 258 261 262 266 268 267 266 257 258 258 259 259 260 260 261 262 264 265 268 269 269 269 269 270 272 273 275 277 278 277 277
249 253 254 252 251 251 252 252 253 253 254 255 256 256 258 261 257 257 258 258 258 259 259 259 259 260 261 262 263 265 266 269 269 270 271 272 274 275 275 277 277 276 277
250 248 253 250 248 249 250 250 253 253 253 254 255 256 267 256 255 256 257 258 258 259 260 260 260 260 261 263 263 264 265 266 267 269 270 271 271 271 273 275 275 274 273
248 249 246 247 249 250 249 252 252 250 251 251 253 253 262 251 252 254 255 256 258 259 261 261 260 261 262 263 264 263 264 265 266 267 268 268 268 269 269 270 270 270 269
249 247 247 247 248 250 252 251 249 249 250 250 250 252 252 252 252 252 253 254 256 257 260 261 260 261 262 264 266 265 264 265 266 267 267 267 267 268 268 268 268 268 267
246 246 248 248 248 251 252 250 249 250 250 249 247 249 250 251 251 252 252 253 254 256 258 260 260 261 262 263 266 267 267 267 266 267 267 266 266 266 267 267 267 267 267
245 246 248 249 249 252 251 249 249 246 247 247 248 247 249 250 251 251 252 253 254 254 256 258 259 260 261 261 265 267 269 267 266 266 266 266 266 266 266 265 265 265 265
254 252 252 252 252 251 250 249 248 248 247 248 248 248 249 250 251 252 252 253 253 254 254 256 258 258 259 261 265 268 269 271 266 266 265 265 264 265 265 264 264 264 264
Wind_Speed
4 4 5 5 5 4 4 4 5 5 5 6 6 6 6 6 6 6 6 8 9 10 9 8 9 7 6 5 4 6 7 7 11 10 9 5 5 8 8 7 9 10 10
4 3 4 5 6 7 6 6 6 7 7 7 8 9 10 10 7 6 6 6 7 11 12 12 11 8 8 7 6 9 8 9 8 15 12 9 7 7 9 10 8 8 9
1 2 3 5 6 6 6 6 6 6 7 8 8 9 11 12 12 12 11 11 12 11 11 12 13 11 12 9 8 9 8 8 9 10 11 8 8 4 8 8 8 9 7
3 3 1 2 3 5 5 6 7 7 8 9 9 10 11 11 11 12 13 13 12 12 12 13 13 13 13 13 11 12 11 10 10 11 11 10 8 6 5 7 8 6 9
4 3 2 2 3 4 4 5 5 5 6 7 11 11 11 11 9 13 14 14 15 16 16 15 15 15 22 22 13 12 13 12 11 11 13 11 9 6 7 5 8 9 8
5 5 2 1 1 2 3 4 6 7 8 9 9 11 11 9 20 24 22 16 17 18 17 16 15 17 18 27 28 30 25 16 16 13 14 15 16 9 8 9 10 8 10
5 2 3 3 2 3 5 6 7 9 9 10 10 11 12 12 22 24 26 15 16 16 18 17 16 13 17 16 21 28 28 30 31 20 20 19 19 14 10 12 12 13 14
4 2 4 5 4 6 7 8 9 9 10 11 11 12 13 11 24 26 27 17 15 16 16 16 17 17 16 19 19 19 19 19 19 15 20 22 20 18 17 14 15 15 14
3 4 4 4 3 6 7 9 9 10 10 10 11 12 13 13 24 26 24 15 14 15 15 15 15 16 22 27 19 19 19 20 21 33 37 39 40 39 29 14 15 15 15
3 2 2 1 2 3 7 8 7 8 11 10 12 12 15 15 22 25 22 12 14 12 14 15 21 20 28 28 18 15 17 17 16 17 17 24 29 27 36 26 17 18 14
3 1 1 2 2 5 6 6 8 8 10 11 12 12 13 14 16 25 26 14 12 12 12 11 11 26 29 29 29 17 18 20 21 19 18 16 16 18 16 17 20 19 17
1 2 3 4 5 5 5 7 6 7 9 10 11 10 9 12 18 22 27 27 26 15 15 13 14 29 31 31 27 30 34 32 14 11 11 12 15 16 17 17 18 17 18
0 3 3 5 5 6 5 8 7 6 7 8 8 10 10 10 11 25 28 28 28 19 14 21 35 35 36 28 28 30 28 14 13 14 15 15 15 16 18 18 19 20 19
3 4 4 4 6 5 6 6 6 6 7 8 9 10 11 10 10 10 12 14 21 18 20 16 21 28 32 27 20 20 14 14 14 15 14 14 14 13 14 16 17 16 13
4 5 4 4 5 6 6 6 7 8 10 10 10 10 11 11 12 24 22 14 14 17 21 11 11 12 12 11 10 12 13 13 13 14 14 13 14 15 16 16 16 10 12
4 4 3 4 4 5 6 7 13 17 19 21 22 16 10 23 28 28 29 29 28 28 11 9 9 10 11 12 12 13 13 14 13 12 11 13 14 14 15 15 17 11 11
5 4 3 5 4 5 5 5 8 15 20 14 15 19 22 23 26 27 26 26 23 19 7 9 10 10 11 12 13 13 14 12 10 8 10 12 13 13 18 7 12 8 11
4 7 4 4 4 4 4 5 5 5 9 13 13 17 19 23 25 23 23 18 11 9 7 9 11 11 11 12 13 13 14 9 8 9 10 11 11 12 14 9 9 10 9
4 4 4 3 4 5 4 4 4 5 6 8 12 12 12 22 20 19 19 4 8 9 10 10 10 11 11 11 12 12 15 10 8 9 9 11 12 11 12 10 10 13 11
4 8 6 3 3 3 3 4 4 4 6 6 7 8 11 8 9 9 8 8 8 8 9 9 10 10 11 11 12 12 12 11 9 9 10 10 11 10 11 9 4 5 6
4 3 5 3 3 4 4 4 4 4 5 6 7 6 19 6 8 8 9 9 9 9 10 10 10 10 10 11 11 11 11 10 9 9 7 6 6 4 3 2 1 3 6
3 4 3 4 3 4 4 4 3 4 4 6 6 5 17 4 5 7 8 8 9 9 9 9 9 9 10 11 11 10 11 11 10 9 8 6 5 5 4 4 5 5 6
4 3 3 3 3 4 3 3 3 3 4 5 4 5 6 6 5 6 7 8 9 9 9 9 10 10 10 11 9 8 9 10 10 9 7 6 5 5 5 5 5 6 6
3 4 4 4 3 3 3 3 3 4 4 5 4 5 6 6 6 7 7 8 8 9 9 9 9 13 13 12 11 8 8 9 8 8 9 6 6 6 6 7 6 8 7
3 3 3 3 3 3 3 3 3 3 4 4 4 4 5 6 6 6 7 7 8 8 10 10 8 12 13 17 17 19 12 12 11 12 7 8 8 10 8 7 8 8 9
4 4 4 3 3 3 4 4 4 3 5 4 4 5 6 6 7 7 7 7 8 9 10 8 10 14 16 12 15 19 18 15 12 13 8 7 7 7 7 9 11 8 9
Wind_Direction
102 92 80 64 50 42 31 5 353 345 348 345 336 328 323 319 319 325 323 317 324 316 314 302 294 280 281 272 261 258 260 249 264 279 274 265 262 254 264 245 239 237 241
138 98 59 42 28 19 2 354 355 349 347 344 338 336 334 328 324 308 299 298 290 299 299 297 293 299 289 276 263 265 258 256 263 273 277 274 253 254 252 252 250 244 238
104 53 24 16 6 349 338 334 338 335 330 327 325 321 320 320 321 320 312 308 300 292 290 284 285 287 288 287 281 277 271 267 263 265 270 271 266 229 264 261 248 247 247
198 194 224 321 318 316 320 326 327 327 321 317 314 309 307 306 303 300 299 297 289 286 286 280 283 279 278 280 277 279 282 281 274 272 270 264 260 249 229 267 263 241 244
190 195 231 284 285 287 300 314 320 315 314 315 313 308 306 305 302 304 302 298 292 288 282 280 279 278 277 279 280 279 276 273 272 272 275 273 257 242 231 227 247 262 241
182 188 208 229 285 341 355 334 322 320 317 312 308 307 306 302 307 305 300 294 291 289 288 287 288 288 284 283 282 282 277 275 270 271 270 267 269 259 254 240 247 248 263
163 158 162 143 95 13 342 334 330 322 318 314 310 309 306 304 304 304 304 297 294 291 290 292 291 289 293 291 291 286 284 280 274 276 273 268 272 261 260 251 241 240 245
141 117 64 44 15 346 343 333 323 319 316 313 310 305 299 302 307 307 305 298 292 291 289 289 288 290 289 291 289 283 276 274 270 268 268 274 271 272 267 258 254 252 254
109 94 65 45 351 340 324 316 314 311 309 307 301 304 300 298 302 303 306 298 290 290 288 284 283 284 285 288 283 279 278 274 274 274 275 276 275 273 267 261 254 246 249
136 96 62 21 346 308 300 302 298 294 297 300 296 296 294 291 295 302 305 293 289 288 284 281 278 279 280 283 282 281 280 283 287 285 271 268 268 266 266 260 249 250 243
101 47 31 19 305 273 277 283 288 289 291 290 289 289 285 282 286 299 301 296 289 285 279 279 274 280 286 287 284 278 275 276 274 274 271 274 274 260 253 247 242 242 242
52 343 327 311 299 289 272 283 278 282 284 287 288 289 282 283 286 294 297 296 294 294 288 280 276 278 281 278 275 268 268 271 274 282 277 269 271 263 256 254 248 241 243
332 302 285 296 286 279 281 286 291 280 276 288 291 291 289 289 285 285 289 292 288 284 278 276 279 280 277 281 288 287 287 276 269 263 263 263 262 269 278 270 245 236 236
247 261 275 266 275 261 265 272 277 275 280 284 284 283 287 290 292 294 284 281 278 282 281 277 273 272 270 269 275 272 267 263 258 258 259 262 263 265 259 266 261 231 224
230 255 252 252 258 274 262 265 268 267 275 286 293 296 302 304 301 303 313 310 302 298 305 310 309 306 301 286 264 262 259 256 253 254 255 259 263 260 253 253 255 230 222
247 257 243 266 266 274 282 289 288 298 305 305 306 309 309 310 311 317 313 315 320 327 322 318 304 305 302 301 296 290 281 256 243 247 253 262 262 262 260 249 242 222 214
224 258 262 267 266 271 281 293 308 317 318 316 317 326 322 321 324 322 330 328 341 334 319 309 306 308 305 300 294 287 285 279 260 252 258 264 271 276 276 249 233 240 227
224 247 240 251 253 261 263 274 284 293 307 313 317 326 328 330 330 341 341 347 329 335 316 315 311 309 308 305 306 303 298 277 259 256 259 264 267 270 280 251 234 227 218
226 237 233 241 248 253 266 265 266 277 279 288 306 324 319 318 338 344 347 327 320 321 322 318 315 312 310 308 308 310 311 284 265 262 259 259 263 267 282 280 246 217 206
237 245 240 233 253 264 259 260 273 269 284 289 295 307 312 322 345 333 333 330 325 318 317 315 314 311 313 316 316 317 318 324 288 270 265 264 265 263 268 264 230 209 204
223 234 241 250 246 246 242 245 261 268 279 285 284 297 316 6 316 318 324 326 323 320 321 321 319 318 317 322 323 322 324 323 327 323 321 323 322 316 332 358 131 123 126
212 228 226 232 242 248 244 251 257 261 270 277 291 301 328 310 292 309 316 317 315 316 317 318 317 319 320 321 324 325 325 328 329 331 329 335 343 354 8 39 67 87 105
213 225 242 248 231 247 252 261 262 260 276 273 281 300 307 297 297 305 308 310 315 315 318 322 320 322 324 327 322 326 326 329 325 329 334 342 0 14 26 49 66 78 88
195 213 231 242 243 236 255 263 266 265 277 278 289 291 292 295 299 299 300 306 312 314 315 319 320 325 326 331 338 331 336 342 339 337 349 1 12 22 39 53 64 82 87
201 218 224 233 234 254 272 267 268 279 277 277 288 283 286 290 292 295 299 301 308 311 313 317 318 325 328 327 337 347 351 4 3 359 359 14 36 42 49 56 62 68 78
223 230 232 228 245 243 249 262 264 273 276 282 282 282 287 296 297 296 300 308 317 313 309 312 314 321 325 327 331 348 354 20 19 14 12 22 31 40 54 63 66 66 67